Previsão horária em Allmersbach

Hoje, 23 Janeiro, Sábado

Tempo Temperatura Precipitação Vento Pressão Humidade
00:00 +2°C° 0.8 mm 3 m/s 712 mmHg 95%
01:00 +1°C° 0.8 mm 4 m/s 713 mmHg 97%
02:00 0°C° 0.7 mm 4 m/s 713 mmHg 97%
03:00 0°C° 0.7 mm 4 m/s 713 mmHg 97%
04:00 -1°C° 0.7 mm 5 m/s 714 mmHg 97%
05:00 -1°C° 0.3 mm 4 m/s 714 mmHg 96%
06:00 -1°C° 0.3 mm 4 m/s 715 mmHg 95%
07:00 0°C° 0.3 mm 4 m/s 715 mmHg 94%
08:00 +1°C° 0 mm 3 m/s 716 mmHg 92%
09:00 +1°C° 0 mm 3 m/s 716 mmHg 90%
10:00 +1°C° 0 mm 3 m/s 716 mmHg 88%
11:00 +3°C° 0.1 mm 2 m/s 716 mmHg 85%
12:00 +3°C° 0.1 mm 2 m/s 716 mmHg 83%
13:00 +4°C° 0.1 mm 1 m/s 716 mmHg 84%
14:00 +3°C° 0 mm 2 m/s 715 mmHg 85%
15:00 +3°C° 0 mm 2 m/s 715 mmHg 87%
16:00 +3°C° 0 mm 2 m/s 714 mmHg 88%
17:00 +2°C° 0.1 mm 2 m/s 714 mmHg 90%
18:00 +1°C° 0.1 mm 2 m/s 714 mmHg 92%
19:00 -1°C° 0.1 mm 2 m/s 713 mmHg 94%
20:00 0°C° 0.6 mm 3 m/s 713 mmHg 93%
21:00 0°C° 0.6 mm 3 m/s 713 mmHg 92%
22:00 0°C° 0.6 mm 3 m/s 712 mmHg 92%
23:00 +1°C° 0 mm 1 m/s 715 mmHg 91%

Amanhã, 24 Janeiro, Domingo

Tempo Temperatura Precipitação Vento Pressão Humidade
00:00 +1°C° 0 mm 1 m/s 715 mmHg 91%
01:00 +1°C° 0 mm 1 m/s 715 mmHg 91%
02:00 +1°C° 0.1 mm 1 m/s 715 mmHg 92%
03:00 +1°C° 0.1 mm 1 m/s 715 mmHg 93%
04:00 -1°C° 0.1 mm 2 m/s 715 mmHg 94%
05:00 -1°C° 1.2 mm 3 m/s 715 mmHg 94%
06:00 -2°C° 1.2 mm 5 m/s 716 mmHg 95%
07:00 -3°C° 1.2 mm 6 m/s 716 mmHg 96%
08:00 -3°C° 0.3 mm 6 m/s 717 mmHg 93%
09:00 -3°C° 0.3 mm 6 m/s 717 mmHg 90%
10:00 -2°C° 0.3 mm 5 m/s 718 mmHg 87%
11:00 -2°C° 0 mm 5 m/s 718 mmHg 85%
12:00 -1°C° 0 mm 4 m/s 718 mmHg 82%
13:00 -1°C° 0 mm 4 m/s 718 mmHg 80%
14:00 0°C° 0 mm 3 m/s 718 mmHg 81%
15:00 +1°C° 0 mm 2 m/s 718 mmHg 83%
16:00 +1°C° 0 mm 1 m/s 718 mmHg 85%
17:00 +1°C° 0 mm 1 m/s 718 mmHg 86%
18:00 0°C° 0 mm 1 m/s 718 mmHg 87%
19:00 0°C° 0 mm 1 m/s 718 mmHg 89%
20:00 0°C° 0 mm 1 m/s 718 mmHg 89%
21:00 0°C° 0 mm 1 m/s 718 mmHg 89%
22:00 0°C° 0 mm 1 m/s 718 mmHg 89%
23:00 0°C° 0.4 mm 1 m/s 718 mmHg 91%

Depois de amanhã, 25 Janeiro, Segunda-feira

Tempo Temperatura Precipitação Vento Pressão Humidade
00:00 0°C° 0.4 mm 1 m/s 718 mmHg 94%
01:00 0°C° 0.4 mm 1 m/s 718 mmHg 96%
02:00 0°C° 0.3 mm 1 m/s 719 mmHg 96%
03:00 0°C° 0.3 mm 1 m/s 719 mmHg 96%
04:00 -2°C° 0.3 mm 2 m/s 719 mmHg 96%
05:00 -2°C° 0.4 mm 2 m/s 720 mmHg 96%
06:00 -2°C° 0.4 mm 2 m/s 720 mmHg 96%
07:00 -3°C° 0.4 mm 2 m/s 721 mmHg 96%
08:00 -2°C° 0.3 mm 2 m/s 722 mmHg 95%
09:00 -2°C° 0.3 mm 2 m/s 722 mmHg 95%
10:00 -2°C° 0.3 mm 3 m/s 723 mmHg 95%
11:00 -1°C° 0.3 mm 3 m/s 724 mmHg 93%
12:00 -2°C° 0.3 mm 4 m/s 724 mmHg 91%
13:00 -2°C° 0.3 mm 4 m/s 725 mmHg 90%
14:00 -2°C° 0.1 mm 4 m/s 725 mmHg 88%
15:00 -1°C° 0.1 mm 3 m/s 725 mmHg 86%
16:00 -1°C° 0.1 mm 3 m/s 725 mmHg 85%
17:00 -1°C° 0.2 mm 3 m/s 725 mmHg 88%
18:00 -2°C° 0.2 mm 3 m/s 725 mmHg 91%
19:00 -3°C° 0.2 mm 4 m/s 725 mmHg 93%
20:00 -3°C° 0.3 mm 4 m/s 725 mmHg 94%
21:00 -2°C° 0.3 mm 5 m/s 725 mmHg 94%
22:00 -2°C° 0.3 mm 5 m/s 726 mmHg 95%
23:00 -2°C° 0.2 mm 5 m/s 726 mmHg 94%

26 Janeiro, Terça-feira

Tempo Temperatura Precipitação Vento Pressão Humidade
00:00 -2°C° 0.2 mm 5 m/s 726 mmHg 92%
01:00 -2°C° 0.2 mm 5 m/s 726 mmHg 91%
02:00 -2°C° 0.2 mm 5 m/s 727 mmHg 93%
03:00 -2°C° 0.2 mm 5 m/s 727 mmHg 94%
04:00 -2°C° 0.2 mm 4 m/s 727 mmHg 96%
05:00 -2°C° 0.8 mm 5 m/s 727 mmHg 96%
06:00 -3°C° 0.8 mm 6 m/s 728 mmHg 96%
07:00 -3°C° 0.8 mm 6 m/s 728 mmHg 96%
08:00 -3°C° 0.3 mm 6 m/s 728 mmHg 94%
09:00 -3°C° 0.3 mm 6 m/s 729 mmHg 92%
10:00 -3°C° 0.3 mm 6 m/s 729 mmHg 90%
11:00 -3°C° 0.1 mm 6 m/s 730 mmHg 91%
12:00 -3°C° 0.1 mm 6 m/s 730 mmHg 92%
13:00 -1°C° 0.1 mm 5 m/s 730 mmHg 93%
14:00 -1°C° 0.1 mm 4 m/s 730 mmHg 93%
15:00 -1°C° 0.1 mm 4 m/s 730 mmHg 92%
16:00 0°C° 0.1 mm 3 m/s 730 mmHg 92%
17:00 +1°C° 0 mm 2 m/s 730 mmHg 92%
18:00 -1°C° 0 mm 2 m/s 730 mmHg 93%
19:00 -1°C° 0 mm 2 m/s 730 mmHg 94%
20:00 -1°C° 0 mm 2 m/s 730 mmHg 92%
21:00 -1°C° 0 mm 2 m/s 729 mmHg 90%
22:00 -1°C° 0 mm 3 m/s 729 mmHg 89%
23:00 -1°C° 0.5 mm 3 m/s 728 mmHg 91%

27 Janeiro, Quarta-feira

Tempo Temperatura Precipitação Vento Pressão Humidade
00:00 -1°C° 0.5 mm 3 m/s 727 mmHg 94%
01:00 -1°C° 0.5 mm 4 m/s 727 mmHg 96%
02:00 -1°C° 0.4 mm 4 m/s 726 mmHg 97%
03:00 0°C° 0.4 mm 5 m/s 725 mmHg 97%
04:00 0°C° 0.4 mm 5 m/s 724 mmHg 97%
05:00 +1°C° 0.4 mm 6 m/s 724 mmHg 97%
06:00 +1°C° 0.4 mm 6 m/s 724 mmHg 97%
07:00 0°C° 0.4 mm 7 m/s 724 mmHg 97%
08:00 0°C° 0.2 mm 7 m/s 725 mmHg 95%
09:00 +2°C° 0.2 mm 7 m/s 726 mmHg 93%
10:00 +2°C° 0.2 mm 7 m/s 726 mmHg 92%
11:00 +2°C° 0 mm 7 m/s 727 mmHg 90%
12:00 +2°C° 0 mm 7 m/s 728 mmHg 89%
13:00 +1°C° 0 mm 8 m/s 728 mmHg 88%
14:00 +2°C° 0 mm 7 m/s 729 mmHg 88%
15:00 +2°C° 0 mm 6 m/s 729 mmHg 89%
16:00 +2°C° 0 mm 6 m/s 730 mmHg 89%
17:00 +2°C° 0.1 mm 5 m/s 730 mmHg 90%
18:00 +1°C° 0.1 mm 4 m/s 731 mmHg 91%
19:00 +1°C° 0.1 mm 4 m/s 731 mmHg 92%
20:00 +1°C° 0.1 mm 4 m/s 732 mmHg 92%
21:00 +1°C° 0.1 mm 4 m/s 732 mmHg 92%
22:00 +1°C° 0.1 mm 4 m/s 732 mmHg 92%
23:00 +2°C° 0 mm 3 m/s 732 mmHg 91%

28 Janeiro, Quinta-feira

Tempo Temperatura Precipitação Vento Pressão Humidade
00:00 +2°C° 0 mm 3 m/s 731 mmHg 91%
01:00 +2°C° 0 mm 3 m/s 731 mmHg 90%
02:00 +3°C° 0 mm 2 m/s 730 mmHg 90%
03:00 +3°C° 0 mm 2 m/s 729 mmHg 89%
04:00 +2°C° 0 mm 2 m/s 729 mmHg 88%
05:00 +2°C° 0.3 mm 3 m/s 728 mmHg 89%
06:00 +2°C° 0.3 mm 3 m/s 728 mmHg 90%
07:00 +1°C° 0.3 mm 4 m/s 727 mmHg 90%
08:00 +3°C° 0.5 mm 4 m/s 727 mmHg 90%
09:00 +3°C° 0.5 mm 5 m/s 726 mmHg 90%
10:00 +3°C° 0.5 mm 5 m/s 726 mmHg 89%
11:00 +4°C° 0 mm 6 m/s 726 mmHg 88%
12:00 +5°C° 0 mm 6 m/s 726 mmHg 86%
13:00 +6°C° 0 mm 7 m/s 726 mmHg 84%
14:00 +5°C° 0.2 mm 6 m/s 725 mmHg 85%
15:00 +5°C° 0.2 mm 6 m/s 725 mmHg 86%
16:00 +4°C° 0.2 mm 6 m/s 724 mmHg 87%
17:00 +4°C° 0.9 mm 6 m/s 725 mmHg 88%
18:00 +4°C° 0.9 mm 6 m/s 725 mmHg 89%
19:00 +4°C° 0.9 mm 6 m/s 725 mmHg 89%
Mostrar mais

Necessitamos do seu Consentimento

A Meteoprog e os seus Fornecedores de Serviços podem armazenar e aceder a dados pessoais como cookies, identificadores do dispositivo ou outras tecnologias semelhantes existentes no seu dispositivo e processar estes dados para personalizar conteúdos e anúncios, assim como funcionalidades nas redes sociais e análise de tráfego.

  • Armazenar e/ou aceder a informações no seu dispositivo

    Os cookies, identificadores do dispositivo ou outras informações podem ser armazenados ou acedidos no seu dispositivo, para os fins acima indicados.

  • Anúncios e conteúdos personalizados, medição de anúncios e conteúdos, dados sobre o público-alvo e desenvolvimento de produtos

    Os anúncios e os conteúdos podem ser personalizados com base num perfil. Podem ser adicionados dados adicionais para uma maior personalização dos anúncios e dos conteúdos. A eficácia dos anúncios e dos conteúdos pode ser medida. Podem ser obtidas informações sobre o público que visualizou os anúncios e os conteúdos. Estes dados podem ser usados para desenvolver ou melhorar sistemas, softwares ou a experiência do utilizador.

Ao clicar em "Eu concordo”, permitirá o uso de cookies, identificadores do dispositivo e web beacons mencionados ou outras tecnologias semelhantes. As configurações do navegador do seu dispositivo podem ser alteradas.

Para certos fins, podem ser invocados interesses legítimos ao invés de consentimento. Pode ler mais informação sobre este assunto na nossa Política de Privacidade e Cookies.